[[{"header":{"parameterUnit":"m.s-1","parameterCategory":1,"la1":30.2991,"la2":30.254,"lo1":-89.0895,"lo2":-89.0444,"dy":0.0017,"dx":0.0017,"nx":28,"ny":28,"refTime":"2024-02-16T09:00:00:Z","depth":0,"parameterNumber":2,"parameterNumberName":"U-component_of_WINDS"},"data":[0,0,0,0,0,0,0,0,0,0,0,0,0,0,0,0,0,0,0,0,0,0,0,0,0,0,0,0,0,0,0,0,0,0,0,0,0,0,0,0,0,0,0,0,0,0,0,0,0,0,0,0,0,0,0,0,0,0,0.2953,0.2953,0,0.2987,0.2987,0.2987,0.2991,0.2991,0.2991,0.2991,0.3024,0.3025,0.3026,0,0,0,0,0,0,0,0,0,0,0,0,0,0.289,0.2891,0.2953,0.2953,0.2954,0.2987,0.2987,0.2987,0.2992,0.2991,0.2991,0.299,0.3023,0.3025,0.3026,0,0,0,0,0,0,0,0,0,0,0,0,0,0.292,0.2892,0.2953,0.296,0.2961,0.2986,0.2987,0.2988,0.2992,0.2991,0.2991,0.299,0.3023,0.3025,0.3026,0.3047,0,0,0.3032,0.3033,0,0,0,0,0,0,0,0,0.2918,0.2922,0.2958,0.2959,0.296,0.2984,0.2977,0.3008,0.2992,0.298,0.2991,0.299,0.3011,0.3014,0.3021,0.3049,0.305,0.3032,0.3033,0.3034,0.3034,0,0,0,0,0,0,0,0.2916,0.2921,0.2966,0.2959,0.296,0.2961,0.2964,0.2983,0.2998,0.2981,0.2981,0.2985,0.3011,0.3019,0.3022,0.3051,0.3032,0.3033,0.3035,0.3035,0.3097,0.3097,0,0,0,0,0,0,0.2913,0.2919,0.2965,0.2967,0.2938,0.2962,0.2966,0.2977,0.2997,0.3,0.2986,0.2985,0.3016,0.302,0.3023,0.3048,0.3034,0.3035,0.3036,0.3096,0.3097,0.3098,0,0,0,0,0,0,0.2912,0.2917,0.2964,0.2943,0.2949,0.2964,0.2976,0.2978,0.2986,0.3001,0.3004,0.2991,0.3016,0.302,0.3041,0.305,0.3036,0.3038,0.3096,0.3096,0.3097,0.31,0,0,0,0,0,0,0.291,0.2917,0.2925,0.2943,0.295,0.2982,0.2976,0.2979,0.2989,0.2989,0.3007,0.3009,0.3016,0.3038,0.3043,0.3052,0.3039,0.3095,0.3096,0.3097,0.3099,0.31,0.3102,0,0,0,0,0,0.2908,0.2924,0.2925,0.2931,0.2961,0.2982,0.2986,0.2994,0.299,0.2998,0.3008,0.3009,0.3048,0.3041,0.3046,0.3055,0.3094,0.3096,0.3097,0.3098,0.31,0.3102,0,0,0,0,0,0,0.2905,0.2926,0.2928,0.2951,0.2965,0.2983,0.2993,0.2996,0.3011,0.301,0.3019,0.3023,0.3043,0.3051,0.3042,0.3076,0.3071,0.3073,0.307,0.3072,0.3074,0.3071,0.3041,0,0,0,0,0,0.2908,0.2924,0.2941,0.2959,0.2966,0.2979,0.2988,0.2993,0.3008,0.3013,0.3024,0.3038,0.3053,0.3063,0.3078,0.31,0.3104,0.3109,0.3111,0.3112,0.3114,0.3126,0.3128,0.3102,0.3102,0.3102,0,0,0.2912,0.2926,0.2935,0.2959,0.2971,0.2986,0.2984,0.3,0.3012,0.3016,0.3036,0.3045,0.306,0.3082,0.3092,0.3089,0.3122,0.3114,0.3115,0.3116,0.3127,0.313,0.3132,0.3103,0.3102,0.3102,0,0,0.2929,0.2941,0.2958,0.2969,0.2986,0.2995,0.2999,0.3016,0.3022,0.3043,0.3046,0.306,0.3086,0.3097,0.3106,0.3127,0.3129,0.3132,0.314,0.3151,0.3153,0.3155,0.3162,0.3165,0.3134,0.3134,0.3134,0,0.2932,0.2957,0.2966,0.2983,0.2993,0.2998,0.3014,0.3025,0.3046,0.3053,0.305,0.3083,0.3094,0.3118,0.3123,0.3131,0.3135,0.313,0.3152,0.3154,0.3156,0.3163,0.3166,0.3134,0.3134,0.3134,0.3134,0,0.296,0.2977,0.2988,0.3009,0.302,0.3037,0.3048,0.3059,0.3063,0.3071,0.3092,0.3105,0.3123,0.3129,0.3133,0.3154,0.3152,0.3151,0.3145,0.3159,0.3165,0.3168,0.3134,0.3134,0.3134,0.3134,0,0,0.2975,0.3001,0.3005,0.3015,0.3034,0.3047,0.3064,0.3082,0.3091,0.3105,0.3119,0.3142,0.3141,0.3151,0.3156,0.3166,0.3182,0.3164,0.3165,0.3166,0.3205,0.3205,0.3208,0.3183,0.3184,0.3184,0.3203,0,0.2994,0.3024,0.3033,0.3058,0.3074,0.3079,0.3093,0.3107,0.3115,0.3129,0.3138,0.3154,0.3151,0.3158,0.3168,0.3178,0.319,0.3177,0.3195,0.3196,0.3191,0.3212,0.3212,0.323,0.3206,0.3206,0.3207,0,0.3019,0.3034,0.3062,0.3079,0.3086,0.3099,0.3116,0.313,0.3145,0.315,0.3162,0.3166,0.3184,0.3178,0.3201,0.3192,0.32,0.3206,0.3207,0.3209,0.3202,0.3213,0.3236,0.3238,0.3211,0.3211,0.321,0,0.3027,0.3055,0.3074,0.3082,0.3104,0.3113,0.3122,0.3137,0.3147,0.3162,0.3168,0.3185,0.3194,0.3206,0.3215,0.321,0.3238,0.3232,0.3242,0.3242,0.3247,0.3247,0.327,0.3253,0.3253,0.3253,0.3253,0,0.3046,0.3062,0.3078,0.309,0.3109,0.3119,0.3136,0.3146,0.3159,0.3172,0.3178,0.319,0.3201,0.3215,0.3222,0.324,0.3245,0.3249,0.325,0.3248,0.3248,0.3253,0.3252,0.3254,0.3254,0.3254,0.3254,0,0.3058,0.3069,0.3091,0.311,0.3115,0.3127,0.3143,0.3155,0.3164,0.3181,0.3185,0.3199,0.3216,0.3226,0.3247,0.3252,0.3271,0.3273,0.3266,0.3267,0.3276,0.3275,0.3304,0.3308,0.3289,0.3289,0.3289,0,0.3069,0.3082,0.3102,0.3112,0.3121,0.3137,0.3148,0.3158,0.3169,0.3187,0.3197,0.3214,0.3228,0.3254,0.3266,0.3282,0.3283,0.3292,0.3286,0.3283,0.3283,0.3282,0.3283,0.3293,0.3293,0.3294,0.3294,0,0.3088,0.3093,0.3108,0.3126,0.3139,0.3153,0.3167,0.3174,0.3187,0.3199,0.3216,0.3227,0.3249,0.3266,0.3283,0.3292,0.3295,0.3296,0.3299,0.3296,0.3292,0.3294,0.3269,0.3295,0.3295,0.3295,0.3295,0.3295,0.3099,0.3111,0.3127,0.3144,0.3156,0.3169,0.3181,0.3191,0.3206,0.3225,0.323,0.3248,0.3263,0.3287,0.3296,0.331,0.3309,0.3313,0.3314,0.3315,0.3315,0.329,0.3313,0.3313,0.3313,0.3313,0.3313,0,0.3117,0.3128,0.3144,0.3164,0.3177,0.318,0.3195,0.3206,0.3222,0.3236,0.325,0.327,0.3287,0.33,0.3316,0.3325,0.3327,0.3329,0.3328,0.333,0.3315,0.3311,0.3327,0.3327,0.3327,0.3327,0.3327,0.3327,0.3129,0.3148,0.3155,0.3181,0.3191,0.321,0.3218,0.323,0.3242,0.3264,0.3278,0.3286,0.33,0.3318,0.3333,0.3336,0.3342,0.3344,0.3347,0.3333,0.3331,0.333,0.3326,0.3345,0.3345,0.3361,0.3361,0.3361]},{"header":{"parameterUnit":"m.s-1","parameterCategory":1,"la1":30.2991,"la2":30.254,"lo1":-89.0895,"lo2":-89.0444,"dy":0.0017,"dx":0.0017,"nx":28,"ny":28,"refTime":"2024-02-16T09:00:00:Z","depth":0,"parameterNumber":3,"parameterNumberName":"V-component_of_WINDS"},"data":[0,0,0,0,0,0,0,0,0,0,0,0,0,0,0,0,0,0,0,0,0,0,0,0,0,0,0,0,0,0,0,0,0,0,0,0,0,0,0,0,0,0,0,0,0,0,0,0,0,0,0,0,0,0,0,0,0,0,0.7186,0.7187,0,0.7243,0.7243,0.7244,0.7249,0.7248,0.7247,0.7247,0.7305,0.7307,0.7309,0,0,0,0,0,0,0,0,0,0,0,0,0,0.7082,0.7084,0.7186,0.7187,0.7187,0.7243,0.7243,0.7244,0.7249,0.7248,0.7247,0.7247,0.7305,0.7307,0.731,0,0,0,0,0,0,0,0,0,0,0,0,0,0.7132,0.7084,0.7186,0.7196,0.7198,0.7243,0.7243,0.7244,0.7249,0.7248,0.7247,0.7246,0.7304,0.7307,0.731,0.7348,0,0,0.732,0.7321,0,0,0,0,0,0,0,0,0.7129,0.7136,0.7194,0.7196,0.7197,0.7238,0.7228,0.7279,0.7249,0.723,0.7247,0.7246,0.7284,0.7288,0.7301,0.7351,0.7354,0.732,0.7322,0.7323,0.7324,0,0,0,0,0,0,0,0.7125,0.7133,0.7208,0.7195,0.7197,0.7198,0.7204,0.7238,0.7261,0.7231,0.7232,0.7238,0.7284,0.7298,0.7302,0.7354,0.732,0.7323,0.7325,0.7326,0.7439,0.744,0,0,0,0,0,0,0.712,0.713,0.7207,0.721,0.716,0.7201,0.7208,0.7226,0.7261,0.7265,0.7239,0.7238,0.7293,0.7299,0.7305,0.7352,0.7323,0.7326,0.7328,0.7438,0.7439,0.744,0,0,0,0,0,0,0.7118,0.7127,0.7204,0.717,0.718,0.7204,0.7224,0.7227,0.7241,0.7267,0.7271,0.7249,0.7292,0.73,0.7337,0.7354,0.7328,0.7331,0.7436,0.7438,0.744,0.7447,0,0,0,0,0,0,0.7115,0.7126,0.7141,0.7171,0.7182,0.7236,0.7225,0.7229,0.7246,0.7246,0.7277,0.7281,0.7292,0.7333,0.7341,0.7358,0.7333,0.7435,0.7437,0.7439,0.7445,0.7449,0.7451,0,0,0,0,0,0.7111,0.7141,0.7141,0.7151,0.7201,0.7237,0.7244,0.7256,0.7248,0.7263,0.7279,0.728,0.7351,0.7336,0.7345,0.7364,0.7434,0.7437,0.7439,0.7444,0.7448,0.7451,0,0,0,0,0,0,0.7112,0.7145,0.7146,0.7186,0.7209,0.7238,0.7257,0.726,0.7286,0.7284,0.7298,0.7305,0.7342,0.7357,0.734,0.7403,0.7392,0.7396,0.7392,0.7396,0.7399,0.7395,0.7336,0,0,0,0,0,0.7117,0.7144,0.7171,0.7203,0.7215,0.7234,0.725,0.7258,0.7282,0.7292,0.7311,0.7334,0.7362,0.738,0.7406,0.7447,0.7454,0.7464,0.7467,0.747,0.7473,0.7496,0.7501,0.7448,0.7448,0.7448,0,0,0.7128,0.7149,0.7165,0.7204,0.7223,0.725,0.7242,0.7271,0.7292,0.7296,0.7333,0.7347,0.7375,0.7414,0.7432,0.7427,0.7489,0.7473,0.7474,0.7477,0.7499,0.7504,0.7509,0.745,0.7449,0.7449,0,0,0.7161,0.7179,0.7209,0.7227,0.7255,0.7268,0.7275,0.7304,0.7314,0.735,0.7354,0.7378,0.7426,0.7445,0.7461,0.7501,0.7503,0.7509,0.7525,0.7547,0.7551,0.7555,0.757,0.7575,0.7513,0.7513,0.7513,0,0.7171,0.7212,0.7224,0.7253,0.727,0.7275,0.7305,0.7322,0.7358,0.737,0.7363,0.7422,0.7441,0.7485,0.7495,0.7507,0.7516,0.7506,0.755,0.7554,0.7557,0.7571,0.7577,0.7513,0.7513,0.7513,0.7513,0,0.7222,0.7251,0.7271,0.7305,0.7325,0.7354,0.737,0.7389,0.7394,0.7408,0.7445,0.7467,0.7499,0.751,0.7515,0.7554,0.755,0.7547,0.7536,0.7563,0.7576,0.7582,0.7514,0.7514,0.7514,0.7514,0,0,0.7259,0.7298,0.7306,0.7321,0.7352,0.7374,0.7404,0.7434,0.745,0.7474,0.7499,0.7539,0.7536,0.7554,0.7562,0.7581,0.7611,0.7575,0.7576,0.7581,0.7656,0.7659,0.7665,0.7612,0.7613,0.7614,0.7654,0,0.7296,0.7349,0.736,0.7405,0.7432,0.7436,0.7462,0.7484,0.7497,0.7522,0.7536,0.7564,0.7557,0.7568,0.7587,0.7604,0.7627,0.7601,0.7636,0.7637,0.763,0.7672,0.7675,0.7711,0.7659,0.766,0.7661,0,0.7346,0.7371,0.742,0.7447,0.7458,0.7481,0.751,0.7533,0.7558,0.7566,0.7586,0.7592,0.7623,0.761,0.7653,0.7635,0.765,0.766,0.7662,0.7666,0.7651,0.7678,0.7723,0.7729,0.7669,0.7668,0.7668,0,0.7369,0.7414,0.7449,0.7462,0.7495,0.7511,0.7525,0.7549,0.7566,0.7591,0.7603,0.7631,0.7647,0.7669,0.7682,0.7671,0.7724,0.7712,0.7732,0.7732,0.7743,0.7743,0.7792,0.7752,0.7752,0.7752,0.7752,0,0.7409,0.7439,0.7459,0.7481,0.7514,0.7526,0.7559,0.7573,0.7594,0.7618,0.7624,0.7647,0.7662,0.7687,0.7698,0.7732,0.7739,0.7746,0.7749,0.7746,0.7745,0.7757,0.7755,0.7753,0.7753,0.7753,0.7753,0,0.744,0.7455,0.7493,0.7521,0.7528,0.7551,0.7575,0.7596,0.7609,0.764,0.7648,0.7668,0.7697,0.7713,0.775,0.7757,0.7795,0.7796,0.7787,0.7788,0.7807,0.7805,0.7867,0.7875,0.7829,0.7829,0.7829,0,0.7465,0.7488,0.7518,0.7534,0.7549,0.7576,0.7593,0.7606,0.7625,0.7655,0.7672,0.7702,0.7727,0.7774,0.7792,0.782,0.7822,0.7841,0.7826,0.7823,0.7823,0.7821,0.7824,0.7844,0.7845,0.7845,0.7845,0,0.7509,0.7515,0.754,0.7568,0.7589,0.7612,0.7634,0.7648,0.7664,0.7685,0.7715,0.7734,0.7772,0.7801,0.7831,0.7846,0.7848,0.785,0.7856,0.7854,0.7848,0.7852,0.7795,0.7848,0.7848,0.7848,0.7848,0.7848,0.7538,0.7558,0.7582,0.761,0.7628,0.7649,0.767,0.7685,0.7711,0.7742,0.7748,0.7781,0.7805,0.7844,0.786,0.7885,0.7881,0.789,0.7893,0.7895,0.7896,0.7843,0.7891,0.7891,0.7891,0.7891,0.7891,0,0.7582,0.7598,0.7623,0.7654,0.7676,0.7676,0.7701,0.7719,0.7748,0.777,0.7794,0.7828,0.7857,0.7877,0.7906,0.7922,0.7924,0.793,0.7929,0.7932,0.7898,0.789,0.7928,0.7928,0.7928,0.7928,0.7928,0.7928,0.7608,0.7642,0.7651,0.7694,0.771,0.7741,0.7755,0.7774,0.7792,0.783,0.7854,0.7867,0.7888,0.7919,0.7945,0.795,0.7961,0.7966,0.7971,0.7939,0.7935,0.7931,0.7924,0.7968,0.7968,0.8004,0.8004,0.8005]}]]